Data supplied by UK-AIR on 6/6/2017
All Data GMT hour ending 
Status: R =Ratified P=Provisional,P*=As supplied
,,London Westminster,,,,,,,,,,,,,,,,,,,,,,,
Date,time,"Nitric oxide",status,unit,"Nitrogen dioxide",status,unit,"Nitrogen oxides as nitrogen dioxide",status,unit,"Daily measured PM<sub>2.5</sub> (uncorrected)",status,unit
 
01-01-2016,01:00,4.45452,R,ugm-3,28.94441,R,ugm-3,35.77459,R,ugm-3,,,
01-01-2016,02:00,3.68109,R,ugm-3,31.65283,R,ugm-3,37.29710,R,ugm-3,,,
01-01-2016,03:00,4.17596,R,ugm-3,37.60166,R,ugm-3,44.00471,R,ugm-3,,,
01-01-2016,04:00,5.10395,R,ugm-3,39.03365,R,ugm-3,46.85960,R,ugm-3,,,
01-01-2016,05:00,13.48674,R,ugm-3,48.68221,R,ugm-3,69.36159,R,ugm-3,,,
01-01-2016,06:00,19.85889,R,ugm-3,51.37597,R,ugm-3,81.82583,R,ugm-3,,,
01-01-2016,07:00,53.94697,R,ugm-3,56.48186,R,ugm-3,139.19940,R,ugm-3,,,
01-01-2016,08:00,47.14170,R,ugm-3,53.21627,R,ugm-3,125.49921,R,ugm-3,,,
01-01-2016,09:00,32.97456,R,ugm-3,53.19714,R,ugm-3,103.75743,R,ugm-3,,,
01-01-2016,10:00,43.77056,R,ugm-3,52.86628,R,ugm-3,119.98021,R,ugm-3,,,
01-01-2016,11:00,45.25516,R,ugm-3,53.72978,R,ugm-3,123.12006,R,ugm-3,,,
01-01-2016,12:00,24.52971,R,ugm-3,40.69418,R,ugm-3,78.30588,R,ugm-3,,,
01-01-2016,13:00,27.71594,R,ugm-3,40.23278,R,ugm-3,82.72997,R,ugm-3,,,
01-01-2016,14:00,28.08733,R,ugm-3,44.18305,R,ugm-3,87.24968,R,ugm-3,,,
01-01-2016,15:00,40.49141,R,ugm-3,52.47039,R,ugm-3,114.55636,R,ugm-3,,,
01-01-2016,16:00,37.89297,R,ugm-3,46.27437,R,ugm-3,104.37612,R,ugm-3,,,
01-01-2016,17:00,40.70782,R,ugm-3,46.38291,R,ugm-3,108.80069,R,ugm-3,,,
01-01-2016,18:00,20.69395,R,ugm-3,31.11398,R,ugm-3,62.84427,R,ugm-3,,,
01-01-2016,19:00,8.93971,R,ugm-3,22.40063,R,ugm-3,36.10800,R,ugm-3,,,
01-01-2016,20:00,5.50621,R,ugm-3,16.29546,R,ugm-3,24.73819,R,ugm-3,,,
01-01-2016,21:00,3.89750,R,ugm-3,14.81327,R,ugm-3,20.78935,R,ugm-3,,,
01-01-2016,22:00,3.52674,R,ugm-3,12.09943,R,ugm-3,17.50703,R,ugm-3,,,
01-01-2016,23:00,4.91842,R,ugm-3,13.05807,R,ugm-3,20.59954,R,ugm-3,,,
01-01-2016,24:00,2.93864,R,ugm-3,12.81040,R,ugm-3,17.31625,R,ugm-3,,,
02-01-2016,01:00,1.89132,R,ugm-3,9.43118,R,ugm-3,12.33116,R,ugm-3,,,
02-01-2016,02:00,2.74468,R,ugm-3,6.13100,R,ugm-3,10.33945,R,ugm-3,,,
02-01-2016,03:00,2.22019,R,ugm-3,5.08534,R,ugm-3,8.48959,R,ugm-3,,,
02-01-2016,04:00,2.46716,R,ugm-3,5.84508,R,ugm-3,9.62800,R,ugm-3,,,
02-01-2016,05:00,1.94298,R,ugm-3,6.27013,R,ugm-3,9.24933,R,ugm-3,,,
02-01-2016,06:00,2.31312,R,ugm-3,7.21969,R,ugm-3,10.76642,R,ugm-3,,,
02-01-2016,07:00,6.29138,R,ugm-3,15.58592,R,ugm-3,25.23257,R,ugm-3,,,
02-01-2016,08:00,7.00047,R,ugm-3,16.11138,R,ugm-3,26.84528,R,ugm-3,,,
02-01-2016,09:00,4.16349,R,ugm-3,10.16924,R,ugm-3,16.55317,R,ugm-3,,,
02-01-2016,10:00,5.39676,R,ugm-3,11.12358,R,ugm-3,19.39849,R,ugm-3,,,
02-01-2016,11:00,7.70987,R,ugm-3,16.92084,R,ugm-3,28.74248,R,ugm-3,,,
02-01-2016,12:00,5.39676,R,ugm-3,14.25386,R,ugm-3,22.52877,R,ugm-3,,,
02-01-2016,13:00,6.41486,R,ugm-3,17.38893,R,ugm-3,27.22492,R,ugm-3,,,
02-01-2016,14:00,6.16759,R,ugm-3,16.72433,R,ugm-3,26.18117,R,ugm-3,,,
02-01-2016,15:00,13.23011,R,ugm-3,29.18379,R,ugm-3,49.46968,R,ugm-3,,,
02-01-2016,16:00,8.72767,R,ugm-3,31.48692,R,ugm-3,44.86916,R,ugm-3,,,
02-01-2016,17:00,5.33501,R,ugm-3,27.10778,R,ugm-3,35.28802,R,ugm-3,,,
02-01-2016,18:00,5.85950,R,ugm-3,25.26030,R,ugm-3,34.24475,R,ugm-3,,,
02-01-2016,19:00,4.99606,R,ugm-3,22.69468,R,ugm-3,30.35520,R,ugm-3,,,
02-01-2016,20:00,4.87289,R,ugm-3,23.78433,R,ugm-3,31.25599,R,ugm-3,,,
02-01-2016,21:00,5.11923,R,ugm-3,28.29209,R,ugm-3,36.14147,R,ugm-3,,,
02-01-2016,22:00,4.34809,R,ugm-3,22.21751,R,ugm-3,28.88449,R,ugm-3,,,
02-01-2016,23:00,4.96550,R,ugm-3,22.21990,R,ugm-3,29.83357,R,ugm-3,,,
02-01-2016,24:00,2.49803,R,ugm-3,13.76618,R,ugm-3,17.59643,R,ugm-3,,,
03-01-2016,01:00,2.74988,R,ugm-3,6.95449,R,ugm-3,11.17091,R,ugm-3,,,
03-01-2016,02:00,2.43130,R,ugm-3,1.81018,R,ugm-3,5.53812,R,ugm-3,,,
03-01-2016,03:00,2.24670,R,ugm-3,0.72053,R,ugm-3,4.16543,R,ugm-3,,,
03-01-2016,04:00,1.69259,R,ugm-3,-0.03921,R,ugm-3,2.55606,R,ugm-3,,,
03-01-2016,05:00,1.75433,R,ugm-3,3.79488,R,ugm-3,6.48481,R,ugm-3,,,
03-01-2016,06:00,1.78520,R,ugm-3,10.32702,R,ugm-3,13.06429,R,ugm-3,,,
03-01-2016,07:00,2.49304,R,ugm-3,18.85056,R,ugm-3,22.67317,R,ugm-3,,,
03-01-2016,08:00,2.70851,R,ugm-3,26.75635,R,ugm-3,30.90935,R,ugm-3,,,
03-01-2016,09:00,2.33900,R,ugm-3,13.35929,R,ugm-3,16.94571,R,ugm-3,,,
03-01-2016,10:00,3.10858,R,ugm-3,12.60529,R,ugm-3,17.37172,R,ugm-3,,,
03-01-2016,11:00,3.10858,R,ugm-3,11.23259,R,ugm-3,15.99902,R,ugm-3,,,
03-01-2016,12:00,4.52396,R,ugm-3,12.37579,R,ugm-3,19.31243,R,ugm-3,,,
03-01-2016,13:00,3.44691,R,ugm-3,9.67247,R,ugm-3,14.95766,R,ugm-3,,,
03-01-2016,14:00,3.72413,R,ugm-3,11.56680,R,ugm-3,17.27705,R,ugm-3,,,
03-01-2016,15:00,4.37023,R,ugm-3,14.59955,R,ugm-3,21.30047,R,ugm-3,,,
03-01-2016,16:00,3.23175,R,ugm-3,19.70592,R,ugm-3,24.66121,R,ugm-3,,,
03-01-2016,17:00,2.61621,R,ugm-3,31.20531,R,ugm-3,35.21678,R,ugm-3,,,
03-01-2016,18:00,4.09333,R,ugm-3,41.24737,R,ugm-3,47.52371,R,ugm-3,,,
03-01-2016,19:00,4.49340,R,ugm-3,52.94087,R,ugm-3,59.83065,R,ugm-3,,,
03-01-2016,20:00,7.32477,R,ugm-3,59.15506,R,ugm-3,70.38622,R,ugm-3,,,
03-01-2016,21:00,4.67800,R,ugm-3,47.59304,R,ugm-3,54.76587,R,ugm-3,,,
03-01-2016,22:00,5.20155,R,ugm-3,48.16297,R,ugm-3,56.13857,R,ugm-3,,,
03-01-2016,23:00,3.90904,R,ugm-3,36.32316,R,ugm-3,42.31693,R,ugm-3,,,
03-01-2016,24:00,2.92398,R,ugm-3,32.05876,R,ugm-3,36.54214,R,ugm-3,,,
04-01-2016,01:00,2.45469,R,ugm-3,23.48104,R,ugm-3,27.24484,R,ugm-3,,,
04-01-2016,02:00,3.09923,R,ugm-3,14.78554,R,ugm-3,19.53762,R,ugm-3,,,
04-01-2016,03:00,1.96356,R,ugm-3,12.32606,R,ugm-3,15.33682,R,ugm-3,,,
04-01-2016,04:00,1.99443,R,ugm-3,11.28805,R,ugm-3,14.34614,R,ugm-3,,,
04-01-2016,05:00,2.14754,R,ugm-3,14.02675,R,ugm-3,17.31960,R,ugm-3,,,
04-01-2016,06:00,1.81014,R,ugm-3,13.93017,R,ugm-3,16.70569,R,ugm-3,,,
04-01-2016,07:00,5.95274,R,ugm-3,32.21224,R,ugm-3,41.33964,R,ugm-3,,,
04-01-2016,08:00,9.41992,R,ugm-3,44.40347,R,ugm-3,58.84715,R,ugm-3,,,
04-01-2016,09:00,28.10635,R,ugm-3,61.14884,R,ugm-3,104.24464,R,ugm-3,,,
04-01-2016,10:00,16.26230,R,ugm-3,49.29660,R,ugm-3,74.23178,R,ugm-3,,,
04-01-2016,11:00,17.39796,R,ugm-3,41.08958,R,ugm-3,67.76609,R,ugm-3,,,
04-01-2016,12:00,12.48828,R,ugm-3,32.90313,R,ugm-3,52.05156,R,ugm-3,,,
04-01-2016,13:00,14.69756,R,ugm-3,37.20769,R,ugm-3,59.74363,R,ugm-3,,,
04-01-2016,14:00,10.61639,R,ugm-3,31.52613,R,ugm-3,47.80437,R,ugm-3,,,
04-01-2016,15:00,16.90653,R,ugm-3,45.09914,R,ugm-3,71.02212,R,ugm-3,,,
04-01-2016,16:00,7.88574,R,ugm-3,40.47950,R,ugm-3,52.57080,R,ugm-3,,,
04-01-2016,17:00,10.06446,R,ugm-3,49.92773,R,ugm-3,65.35969,R,ugm-3,,,
04-01-2016,18:00,8.46854,R,ugm-3,45.05993,R,ugm-3,58.04485,R,ugm-3,,,
04-01-2016,19:00,6.62753,R,ugm-3,39.62413,R,ugm-3,49.78620,R,ugm-3,,,
04-01-2016,20:00,4.44912,R,ugm-3,37.20721,R,ugm-3,44.02910,R,ugm-3,,,
04-01-2016,21:00,4.57167,R,ugm-3,31.26173,R,ugm-3,38.27152,R,ugm-3,,,
04-01-2016,22:00,3.89657,R,ugm-3,27.95549,R,ugm-3,33.93014,R,ugm-3,,,
04-01-2016,23:00,4.75564,R,ugm-3,24.75062,R,ugm-3,32.04250,R,ugm-3,,,
04-01-2016,24:00,2.88438,R,ugm-3,18.55890,R,ugm-3,22.98156,R,ugm-3,,,
05-01-2016,01:00,1.75578,R,ugm-3,12.23745,R,ugm-3,14.92961,R,ugm-3,,,
05-01-2016,02:00,2.11261,R,ugm-3,9.03991,R,ugm-3,12.27921,R,ugm-3,,,
05-01-2016,03:00,1.99038,R,ugm-3,6.35763,R,ugm-3,9.40950,R,ugm-3,,,
05-01-2016,04:00,1.83759,R,ugm-3,9.93257,R,ugm-3,12.75016,R,ugm-3,,,
05-01-2016,05:00,1.96013,R,ugm-3,13.46113,R,ugm-3,16.46663,R,ugm-3,,,
05-01-2016,06:00,3.03156,R,ugm-3,23.01550,R,ugm-3,27.66383,R,ugm-3,,,
05-01-2016,07:00,14.91272,R,ugm-3,45.11779,R,ugm-3,67.98364,R,ugm-3,,,
05-01-2016,08:00,46.45226,R,ugm-3,61.54234,R,ugm-3,132.76814,R,ugm-3,,,
05-01-2016,09:00,69.72469,R,ugm-3,66.79024,R,ugm-3,173.69994,R,ugm-3,,,
05-01-2016,10:00,66.75425,R,ugm-3,63.29897,R,ugm-3,165.65406,R,ugm-3,,,
05-01-2016,11:00,36.31670,R,ugm-3,52.38338,R,ugm-3,108.06820,R,ugm-3,,,
05-01-2016,12:00,17.66863,R,ugm-3,37.45823,R,ugm-3,64.54974,R,ugm-3,,,
05-01-2016,13:00,24.95660,R,ugm-3,43.64325,R,ugm-3,81.90951,R,ugm-3,,,
05-01-2016,14:00,23.57802,R,ugm-3,47.54571,R,ugm-3,83.69817,R,ugm-3,,,
05-01-2016,15:00,13.81011,R,ugm-3,47.37310,R,ugm-3,68.54830,R,ugm-3,,,
05-01-2016,16:00,21.03696,R,ugm-3,59.20383,R,ugm-3,91.46005,R,ugm-3,,,
05-01-2016,17:00,28.38574,R,ugm-3,65.81438,R,ugm-3,109.33858,R,ugm-3,,,
05-01-2016,18:00,20.48566,R,ugm-3,64.70753,R,ugm-3,96.11843,R,ugm-3,,,
05-01-2016,19:00,21.34317,R,ugm-3,64.47420,R,ugm-3,97.19994,R,ugm-3,,,
05-01-2016,20:00,25.78294,R,ugm-3,63.78283,R,ugm-3,103.31612,R,ugm-3,,,
05-01-2016,21:00,14.54508,R,ugm-3,55.89090,R,ugm-3,78.19304,R,ugm-3,,,
05-01-2016,22:00,15.52483,R,ugm-3,53.44768,R,ugm-3,77.25209,R,ugm-3,,,
05-01-2016,23:00,17.82173,R,ugm-3,52.65447,R,ugm-3,79.98075,R,ugm-3,,,
05-01-2016,24:00,28.75338,R,ugm-3,53.62985,R,ugm-3,97.71775,R,ugm-3,,,
06-01-2016,01:00,36.10393,R,ugm-3,53.52131,R,ugm-3,108.87990,R,ugm-3,,,
06-01-2016,02:00,23.13991,R,ugm-3,53.54283,R,ugm-3,89.02353,R,ugm-3,,,
06-01-2016,03:00,39.65510,R,ugm-3,50.78118,R,ugm-3,111.58481,R,ugm-3,,,
06-01-2016,04:00,38.03766,R,ugm-3,45.00638,R,ugm-3,103.32998,R,ugm-3,,,
06-01-2016,05:00,33.61099,R,ugm-3,45.08623,R,ugm-3,96.62237,R,ugm-3,,,
06-01-2016,06:00,55.71253,R,ugm-3,48.15771,R,ugm-3,133.58239,R,ugm-3,,,
06-01-2016,07:00,98.72660,R,ugm-3,58.00087,R,ugm-3,209.37954,R,ugm-3,,,
06-01-2016,08:00,128.91812,R,ugm-3,67.99320,R,ugm-3,265.66490,R,ugm-3,,,
06-01-2016,09:00,211.83145,R,ugm-3,80.63483,R,ugm-3,405.43853,R,ugm-3,,,
06-01-2016,10:00,217.47923,R,ugm-3,83.98266,R,ugm-3,417.44616,R,ugm-3,,,
06-01-2016,11:00,185.76070,R,ugm-3,76.70703,R,ugm-3,361.53613,R,ugm-3,,,
06-01-2016,12:00,157.46165,R,ugm-3,70.42733,R,ugm-3,311.86516,R,ugm-3,,,
06-01-2016,13:00,138.59561,R,ugm-3,68.11656,R,ugm-3,280.62686,R,ugm-3,,,
06-01-2016,14:00,113.80677,R,ugm-3,65.78809,R,ugm-3,240.28937,R,ugm-3,,,
06-01-2016,15:00,112.15846,R,ugm-3,67.00205,R,ugm-3,238.97596,R,ugm-3,,,
06-01-2016,16:00,95.27719,R,ugm-3,61.97648,R,ugm-3,208.06613,R,ugm-3,,,
06-01-2016,17:00,70.00004,R,ugm-3,62.78881,R,ugm-3,170.12070,R,ugm-3,,,
06-01-2016,18:00,69.81637,R,ugm-3,63.49261,R,ugm-3,170.54288,R,ugm-3,,,
06-01-2016,19:00,74.02944,R,ugm-3,62.38001,R,ugm-3,175.89023,R,ugm-3,,,
06-01-2016,20:00,71.83138,R,ugm-3,61.71685,R,ugm-3,171.85677,R,ugm-3,,,
06-01-2016,21:00,64.53561,R,ugm-3,56.20503,R,ugm-3,155.15826,R,ugm-3,,,
06-01-2016,22:00,41.45682,R,ugm-3,49.47207,R,ugm-3,113.03831,R,ugm-3,,,
06-01-2016,23:00,20.81993,R,ugm-3,42.79458,R,ugm-3,74.71803,R,ugm-3,,,
06-01-2016,24:00,17.64493,R,ugm-3,37.76662,R,ugm-3,64.82180,R,ugm-3,,,
07-01-2016,01:00,15.88270,R,ugm-3,35.37615,R,ugm-3,59.72929,R,ugm-3,,,
07-01-2016,02:00,3.25982,R,ugm-3,11.97560,R,ugm-3,16.97392,R,ugm-3,,,
07-01-2016,03:00,2.86380,R,ugm-3,7.99999,R,ugm-3,12.39109,R,ugm-3,,,
07-01-2016,04:00,1.55351,R,ugm-3,2.29404,R,ugm-3,4.67606,R,ugm-3,,,
07-01-2016,05:00,1.09669,R,ugm-3,1.63806,R,ugm-3,3.31962,R,ugm-3,,,
07-01-2016,06:00,1.55382,R,ugm-3,5.28663,R,ugm-3,7.66913,R,ugm-3,,,
07-01-2016,07:00,7.82993,R,ugm-3,20.72672,R,ugm-3,32.73244,R,ugm-3,,,
07-01-2016,08:00,17.88348,R,ugm-3,36.59473,R,ugm-3,64.01568,R,ugm-3,,,
07-01-2016,09:00,20.29014,R,ugm-3,52.17013,R,ugm-3,83.28125,R,ugm-3,,,
07-01-2016,10:00,43.50427,R,ugm-3,58.98724,R,ugm-3,125.69285,R,ugm-3,,,
07-01-2016,11:00,34.02946,R,ugm-3,51.77090,R,ugm-3,103.94868,R,ugm-3,,,
07-01-2016,12:00,20.01542,R,ugm-3,47.16655,R,ugm-3,77.85644,R,ugm-3,,,
07-01-2016,13:00,20.01574,R,ugm-3,36.36428,R,ugm-3,67.05464,R,ugm-3,,,
07-01-2016,14:00,23.88455,R,ugm-3,40.34514,R,ugm-3,76.96761,R,ugm-3,,,
07-01-2016,15:00,22.08750,R,ugm-3,36.78837,R,ugm-3,70.65540,R,ugm-3,,,
07-01-2016,16:00,25.77358,R,ugm-3,48.81226,R,ugm-3,88.33120,R,ugm-3,,,
07-01-2016,17:00,23.94567,R,ugm-3,52.69033,R,ugm-3,89.40651,R,ugm-3,,,
07-01-2016,18:00,19.55891,R,ugm-3,56.65733,R,ugm-3,86.64725,R,ugm-3,,,
07-01-2016,19:00,13.10008,R,ugm-3,51.55096,R,ugm-3,71.63747,R,ugm-3,,,
07-01-2016,20:00,9.26120,R,ugm-3,44.85817,R,ugm-3,59.05848,R,ugm-3,,,
07-01-2016,21:00,6.18443,R,ugm-3,37.18474,R,ugm-3,46.66739,R,ugm-3,,,
07-01-2016,22:00,5.75816,R,ugm-3,34.70518,R,ugm-3,43.53424,R,ugm-3,,,
07-01-2016,23:00,6.79342,R,ugm-3,26.75827,R,ugm-3,37.17470,R,ugm-3,,,
07-01-2016,24:00,3.56447,R,ugm-3,21.18811,R,ugm-3,26.65356,R,ugm-3,,,
08-01-2016,01:00,2.87794,R,ugm-3,13.31993,R,ugm-3,17.73270,R,ugm-3,,,
08-01-2016,02:00,2.28006,R,ugm-3,12.08939,R,ugm-3,15.58544,R,ugm-3,,,
08-01-2016,03:00,1.70225,R,ugm-3,13.72314,R,ugm-3,16.33323,R,ugm-3,,,
08-01-2016,04:00,2.79707,R,ugm-3,20.91032,R,ugm-3,25.19910,R,ugm-3,,,
08-01-2016,05:00,2.15845,R,ugm-3,24.08268,R,ugm-3,27.39226,R,ugm-3,,,
08-01-2016,06:00,4.86447,R,ugm-3,38.64637,R,ugm-3,46.10512,R,ugm-3,,,
08-01-2016,07:00,19.42732,R,ugm-3,54.95617,R,ugm-3,84.74431,R,ugm-3,,,
08-01-2016,08:00,29.70383,R,ugm-3,65.65804,R,ugm-3,111.20327,R,ugm-3,,,
08-01-2016,09:00,41.49985,R,ugm-3,68.29012,R,ugm-3,131.92234,R,ugm-3,,,
08-01-2016,10:00,30.43319,R,ugm-3,62.25283,R,ugm-3,108.91640,R,ugm-3,,,
08-01-2016,11:00,24.04888,R,ugm-3,51.18280,R,ugm-3,88.05724,R,ugm-3,,,
08-01-2016,12:00,24.41340,R,ugm-3,46.93705,R,ugm-3,84.37042,R,ugm-3,,,
08-01-2016,13:00,13.19488,R,ugm-3,41.08528,R,ugm-3,61.31714,R,ugm-3,,,
08-01-2016,14:00,10.73239,R,ugm-3,37.30140,R,ugm-3,53.75751,R,ugm-3,,,
08-01-2016,15:00,8.57363,R,ugm-3,31.60550,R,ugm-3,44.75154,R,ugm-3,,,
08-01-2016,16:00,8.23935,R,ugm-3,40.61098,R,ugm-3,53.24448,R,ugm-3,,,
08-01-2016,17:00,19.54925,R,ugm-3,54.25571,R,ugm-3,84.23080,R,ugm-3,,,
08-01-2016,18:00,13.01246,R,ugm-3,51.11873,R,ugm-3,71.07089,R,ugm-3,,,
08-01-2016,19:00,10.48886,R,ugm-3,51.48785,R,ugm-3,67.57054,R,ugm-3,,,
08-01-2016,20:00,11.21884,R,ugm-3,55.50171,R,ugm-3,72.70369,R,ugm-3,,,
08-01-2016,21:00,6.08059,R,ugm-3,44.01523,R,ugm-3,53.33867,R,ugm-3,,,
08-01-2016,22:00,7.53993,R,ugm-3,41.63704,R,ugm-3,53.19810,R,ugm-3,,,
08-01-2016,23:00,4.56044,R,ugm-3,37.43241,R,ugm-3,44.42498,R,ugm-3,,,
08-01-2016,24:00,3.31408,R,ugm-3,24.92418,R,ugm-3,30.00569,R,ugm-3,,,
09-01-2016,01:00,2.18236,R,ugm-3,15.57221,R,ugm-3,18.91845,R,ugm-3,,,
09-01-2016,02:00,2.09141,R,ugm-3,9.35404,R,ugm-3,12.56082,R,ugm-3,,,
09-01-2016,03:00,1.84881,R,ugm-3,10.88930,R,ugm-3,13.72410,R,ugm-3,,,
09-01-2016,04:00,1.75776,R,ugm-3,9.35404,R,ugm-3,12.04923,R,ugm-3,,,
09-01-2016,05:00,2.03060,R,ugm-3,12.88977,R,ugm-3,16.00332,R,ugm-3,,,
09-01-2016,06:00,1.42442,R,ugm-3,16.19170,R,ugm-3,18.37578,R,ugm-3,,,
09-01-2016,07:00,4.12170,R,ugm-3,25.03558,R,ugm-3,31.35544,R,ugm-3,,,
09-01-2016,08:00,6.57701,R,ugm-3,32.76208,R,ugm-3,42.84669,R,ugm-3,,,
09-01-2016,09:00,10.00210,R,ugm-3,37.83786,R,ugm-3,53.17419,R,ugm-3,,,
09-01-2016,10:00,16.76091,R,ugm-3,39.84981,R,ugm-3,65.54950,R,ugm-3,,,
09-01-2016,11:00,12.88149,R,ugm-3,33.37647,R,ugm-3,53.12782,R,ugm-3,,,
09-01-2016,12:00,6.91035,R,ugm-3,21.87661,R,ugm-3,32.47234,R,ugm-3,,,
09-01-2016,13:00,8.30484,R,ugm-3,22.85581,R,ugm-3,35.58971,R,ugm-3,,,
09-01-2016,14:00,6.24398,R,ugm-3,18.15297,R,ugm-3,27.72695,R,ugm-3,,,
09-01-2016,15:00,5.36464,R,ugm-3,15.96507,R,ugm-3,24.19073,R,ugm-3,,,
09-01-2016,16:00,4.81894,R,ugm-3,21.96602,R,ugm-3,29.35496,R,ugm-3,,,
09-01-2016,17:00,4.42511,R,ugm-3,18.94140,R,ugm-3,25.72647,R,ugm-3,,,
09-01-2016,18:00,5.48594,R,ugm-3,17.40758,R,ugm-3,25.81923,R,ugm-3,,,
09-01-2016,19:00,3.42477,R,ugm-3,13.21777,R,ugm-3,18.46901,R,ugm-3,,,
09-01-2016,20:00,3.66769,R,ugm-3,14.24095,R,ugm-3,19.86466,R,ugm-3,,,
09-01-2016,21:00,3.09175,R,ugm-3,8.61151,R,ugm-3,13.35212,R,ugm-3,,,
09-01-2016,22:00,2.24296,R,ugm-3,9.02843,R,ugm-3,12.46759,R,ugm-3,,,
09-01-2016,23:00,3.54639,R,ugm-3,12.84531,R,ugm-3,18.28302,R,ugm-3,,,
09-01-2016,24:00,2.12166,R,ugm-3,9.67964,R,ugm-3,12.93280,R,ugm-3,,,
10-01-2016,01:00,1.41153,R,ugm-3,7.11131,R,ugm-3,9.27563,R,ugm-3,,,
10-01-2016,02:00,1.93581,R,ugm-3,6.49294,R,ugm-3,9.46114,R,ugm-3,,,
10-01-2016,03:00,1.87532,R,ugm-3,7.88428,R,ugm-3,10.75973,R,ugm-3,,,
10-01-2016,04:00,1.69383,R,ugm-3,7.46688,R,ugm-3,10.06405,R,ugm-3,,,
10-01-2016,05:00,2.11729,R,ugm-3,4.31317,R,ugm-3,7.55963,R,ugm-3,,,
10-01-2016,06:00,1.36112,R,ugm-3,6.63207,R,ugm-3,8.71909,R,ugm-3,,,
10-01-2016,07:00,2.96421,R,ugm-3,12.15107,R,ugm-3,16.69613,R,ugm-3,,,
10-01-2016,08:00,2.05680,R,ugm-3,12.15107,R,ugm-3,15.30478,R,ugm-3,,,
10-01-2016,09:00,2.35927,R,ugm-3,16.88164,R,ugm-3,20.49913,R,ugm-3,,,
10-01-2016,10:00,3.56915,R,ugm-3,22.49339,R,ugm-3,27.96601,R,ugm-3,,,
10-01-2016,11:00,3.72038,R,ugm-3,17.34542,R,ugm-3,23.04993,R,ugm-3,,,
10-01-2016,12:00,5.62595,R,ugm-3,18.92228,R,ugm-3,27.54861,R,ugm-3,,,
10-01-2016,13:00,4.41607,R,ugm-3,14.23808,R,ugm-3,21.00929,R,ugm-3,,,
10-01-2016,14:00,3.59282,R,ugm-3,18.27298,R,ugm-3,17.10923,R,ugm-3,,,
10-01-2016,15:00,3.77385,R,ugm-3,25.13694,R,ugm-3,27.84122,R,ugm-3,,,
10-01-2016,16:00,3.02470,R,ugm-3,23.18906,R,ugm-3,27.82688,R,ugm-3,,,
10-01-2016,17:00,3.44816,R,ugm-3,26.85293,R,ugm-3,32.14004,R,ugm-3,,,
10-01-2016,18:00,3.69014,R,ugm-3,29.49649,R,ugm-3,35.15462,R,ugm-3,,,
10-01-2016,19:00,4.90002,R,ugm-3,45.40418,R,ugm-3,52.91744,R,ugm-3,,,
10-01-2016,20:00,5.32348,R,ugm-3,42.38961,R,ugm-3,50.55216,R,ugm-3,,,
10-01-2016,21:00,7.13830,R,ugm-3,55.97840,R,ugm-3,66.92363,R,ugm-3,,,
10-01-2016,22:00,5.92842,R,ugm-3,45.91434,R,ugm-3,55.00446,R,ugm-3,,,
10-01-2016,23:00,4.11360,R,ugm-3,37.05612,R,ugm-3,43.36355,R,ugm-3,,,
10-01-2016,24:00,4.29508,R,ugm-3,30.28492,R,ugm-3,36.87061,R,ugm-3,,,
11-01-2016,01:00,3.09580,R,ugm-3,30.26850,R,ugm-3,35.01533,R,ugm-3,,,
11-01-2016,02:00,3.73909,R,ugm-3,26.26149,R,ugm-3,31.99469,R,ugm-3,,,
11-01-2016,03:00,2.74437,R,ugm-3,24.68894,R,ugm-3,28.89692,R,ugm-3,,,
11-01-2016,04:00,3.55824,R,ugm-3,17.70784,R,ugm-3,23.16372,R,ugm-3,,,
11-01-2016,05:00,2.02031,R,ugm-3,6.61151,R,ugm-3,9.70928,R,ugm-3,,,
11-01-2016,06:00,2.59314,R,ugm-3,18.67891,R,ugm-3,22.65500,R,ugm-3,,,
11-01-2016,07:00,8.11119,R,ugm-3,46.78931,R,ugm-3,59.22630,R,ugm-3,,,
11-01-2016,08:00,18.36337,R,ugm-3,67.31809,R,ugm-3,95.47487,R,ugm-3,,,
11-01-2016,09:00,22.70585,R,ugm-3,72.12563,R,ugm-3,106.94078,R,ugm-3,,,
11-01-2016,10:00,24.00242,R,ugm-3,61.63079,R,ugm-3,98.43398,R,ugm-3,,,
11-01-2016,11:00,35.70178,R,ugm-3,65.74553,R,ugm-3,120.48750,R,ugm-3,,,
11-01-2016,12:00,40.91830,R,ugm-3,71.94108,R,ugm-3,134.68160,R,ugm-3,,,
11-01-2016,13:00,33.77221,R,ugm-3,61.99990,R,ugm-3,113.78323,R,ugm-3,,,
11-01-2016,14:00,40.70720,R,ugm-3,65.23729,R,ugm-3,127.65412,R,ugm-3,,,
11-01-2016,15:00,44.05401,R,ugm-3,69.53754,R,ugm-3,137.08609,R,ugm-3,,,
11-01-2016,16:00,39.83284,R,ugm-3,69.62934,R,ugm-3,130.70551,R,ugm-3,,,
11-01-2016,17:00,53.07012,R,ugm-3,78.22890,R,ugm-3,159.60195,R,ugm-3,,,
11-01-2016,18:00,40.94824,R,ugm-3,77.76655,R,ugm-3,140.55297,R,ugm-3,,,
11-01-2016,19:00,33.98300,R,ugm-3,69.02834,R,ugm-3,121.13488,R,ugm-3,,,
11-01-2016,20:00,24.27371,R,ugm-3,64.45077,R,ugm-3,101.66993,R,ugm-3,,,
11-01-2016,21:00,19.17755,R,ugm-3,61.35300,R,ugm-3,90.75817,R,ugm-3,,,
11-01-2016,22:00,10.16175,R,ugm-3,50.07212,R,ugm-3,65.65326,R,ugm-3,,,
11-01-2016,23:00,6.78438,R,ugm-3,43.64564,R,ugm-3,54.04821,R,ugm-3,,,
11-01-2016,24:00,8.11119,R,ugm-3,46.09603,R,ugm-3,58.53302,R,ugm-3,,,
12-01-2016,01:00,5.49644,R,ugm-3,37.41743,R,ugm-3,45.84518,R,ugm-3,,,
12-01-2016,02:00,3.85135,R,ugm-3,25.39131,R,ugm-3,31.29663,R,ugm-3,,,
12-01-2016,03:00,2.82888,R,ugm-3,16.54169,R,ugm-3,20.87924,R,ugm-3,,,
12-01-2016,04:00,2.25699,R,ugm-3,13.27036,R,ugm-3,16.73103,R,ugm-3,,,
12-01-2016,05:00,2.43722,R,ugm-3,12.67175,R,ugm-3,16.40877,R,ugm-3,,,
12-01-2016,06:00,2.97886,R,ugm-3,15.52854,R,ugm-3,20.09607,R,ugm-3,,,
12-01-2016,07:00,20.19098,R,ugm-3,34.99732,R,ugm-3,65.95639,R,ugm-3,,,
12-01-2016,08:00,32.37804,R,ugm-3,50.92557,R,ugm-3,100.57120,R,ugm-3,,,
12-01-2016,09:00,37.16268,R,ugm-3,56.72523,R,ugm-3,113.70721,R,ugm-3,,,
12-01-2016,10:00,32.19749,R,ugm-3,49.63511,R,ugm-3,99.00391,R,ugm-3,,,
12-01-2016,11:00,24.88551,R,ugm-3,41.25836,R,ugm-3,79.41561,R,ugm-3,,,
12-01-2016,12:00,26.72060,R,ugm-3,47.20146,R,ugm-3,88.17247,R,ugm-3,,,
12-01-2016,13:00,27.48301,R,ugm-3,49.36673,R,ugm-3,91.50675,R,ugm-3,,,
12-01-2016,14:00,,,,,,,,,,,,
12-01-2016,15:00,38.09566,R,ugm-3,56.53876,R,ugm-3,114.95129,R,ugm-3,,,
12-01-2016,16:00,44.95581,R,ugm-3,61.18422,R,ugm-3,130.11550,R,ugm-3,,,
12-01-2016,17:00,35.71862,R,ugm-3,61.84260,R,ugm-3,116.61038,R,ugm-3,,,
12-01-2016,18:00,27.56346,R,ugm-3,62.54783,R,ugm-3,104.81122,R,ugm-3,,,
12-01-2016,19:00,19.37868,R,ugm-3,58.73574,R,ugm-3,88.44930,R,ugm-3,,,
12-01-2016,20:00,14.59372,R,ugm-3,42.70421,R,ugm-3,65.08094,R,ugm-3,,,
12-01-2016,21:00,9.93007,R,ugm-3,31.32579,R,ugm-3,46.55168,R,ugm-3,,,
12-01-2016,22:00,7.01139,R,ugm-3,26.12236,R,ugm-3,36.87300,R,ugm-3,,,
12-01-2016,23:00,6.28920,R,ugm-3,22.52877,R,ugm-3,32.17208,R,ugm-3,,,
12-01-2016,24:00,4.54360,R,ugm-3,18.52161,R,ugm-3,25.48837,R,ugm-3,,,
13-01-2016,01:00,4.25329,R,ugm-3,9.61286,R,ugm-3,16.13449,R,ugm-3,,,
13-01-2016,02:00,3.24984,R,ugm-3,8.73439,R,ugm-3,13.71741,R,ugm-3,,,
13-01-2016,03:00,4.39361,R,ugm-3,8.27395,R,ugm-3,15.01073,R,ugm-3,,,
13-01-2016,04:00,3.43039,R,ugm-3,8.36528,R,ugm-3,13.62513,R,ugm-3,,,
13-01-2016,05:00,2.91899,R,ugm-3,10.30455,R,ugm-3,14.78028,R,ugm-3,,,
13-01-2016,06:00,6.49968,R,ugm-3,24.58136,R,ugm-3,34.54740,R,ugm-3,,,
13-01-2016,07:00,27.74432,R,ugm-3,52.46561,R,ugm-3,95.00631,R,ugm-3,,,
13-01-2016,08:00,40.47239,R,ugm-3,64.21793,R,ugm-3,126.27473,R,ugm-3,,,
13-01-2016,09:00,44.29412,R,ugm-3,62.51484,R,ugm-3,130.43154,R,ugm-3,,,
13-01-2016,10:00,53.23133,R,ugm-3,63.86889,R,ugm-3,145.48913,R,ugm-3,,,
13-01-2016,11:00,43.09047,R,ugm-3,56.83233,R,ugm-3,122.90347,R,ugm-3,,,
13-01-2016,12:00,38.63720,R,ugm-3,56.22431,R,ugm-3,115.46719,R,ugm-3,,,
13-01-2016,13:00,,,,,,,,,,,,
13-01-2016,14:00,,,,,,,,,,,,
13-01-2016,15:00,,,,,,,,,,,,
13-01-2016,16:00,16.42975,R,ugm-3,61.17801,R,ugm-3,86.36993,R,ugm-3,,,
13-01-2016,17:00,17.00132,R,ugm-3,71.52415,R,ugm-3,97.59248,R,ugm-3,,,
13-01-2016,18:00,14.74465,R,ugm-3,71.89040,R,ugm-3,94.49854,R,ugm-3,,,
13-01-2016,19:00,10.56214,R,ugm-3,65.92531,R,ugm-3,82.12036,R,ugm-3,,,
13-01-2016,20:00,9.17795,R,ugm-3,62.22845,R,ugm-3,76.30110,R,ugm-3,,,
13-01-2016,21:00,5.95773,R,ugm-3,50.81560,R,ugm-3,59.95066,R,ugm-3,,,
13-01-2016,22:00,3.49088,R,ugm-3,33.44437,R,ugm-3,38.79698,R,ugm-3,,,
13-01-2016,23:00,3.52050,R,ugm-3,26.79413,R,ugm-3,32.19216,R,ugm-3,,,
13-01-2016,24:00,2.04620,R,ugm-3,21.38749,R,ugm-3,24.52494,R,ugm-3,,,
14-01-2016,01:00,2.28464,R,ugm-3,22.90856,R,ugm-3,26.41163,R,ugm-3,,,
14-01-2016,02:00,2.25450,R,ugm-3,11.72363,R,ugm-3,15.18047,R,ugm-3,,,
14-01-2016,03:00,,,,,,,,,,,,
14-01-2016,04:00,,,,,,,,,,,,
14-01-2016,05:00,,,,,,,,,,,,
14-01-2016,06:00,,,,,,,,,,,,
14-01-2016,07:00,,,,,,,,,,,,
14-01-2016,08:00,,,,,,,,,,,,
14-01-2016,09:00,,,,,,,,,,,,
14-01-2016,10:00,,,,,,,,,,,,
14-01-2016,11:00,,,,,,,,,,,,
14-01-2016,12:00,,,,,,,,,,,,
14-01-2016,13:00,,,,,,,,,,,,
14-01-2016,14:00,31.74347,R,ugm-3,55.13929,R,ugm-3,103.81193,R,ugm-3,,,
14-01-2016,15:00,32.49466,R,ugm-3,59.49501,R,ugm-3,109.31946,R,ugm-3,,,
14-01-2016,16:00,32.19437,R,ugm-3,63.98221,R,ugm-3,113.34623,R,ugm-3,,,
14-01-2016,17:00,33.39646,R,ugm-3,71.44144,R,ugm-3,122.64863,R,ugm-3,,,
14-01-2016,18:00,29.69946,R,ugm-3,68.68648,R,ugm-3,114.22502,R,ugm-3,,,
14-01-2016,19:00,15.57129,R,ugm-3,55.73025,R,ugm-3,79.60590,R,ugm-3,,,
14-01-2016,20:00,11.63294,R,ugm-3,51.72595,R,ugm-3,69.56288,R,ugm-3,,,
14-01-2016,21:00,9.07785,R,ugm-3,46.43311,R,ugm-3,60.35228,R,ugm-3,,,
14-01-2016,22:00,8.95780,R,ugm-3,42.40586,R,ugm-3,56.14096,R,ugm-3,,,
14-01-2016,23:00,7.15420,R,ugm-3,39.20051,R,ugm-3,50.17013,R,ugm-3,,,
14-01-2016,24:00,6.64312,R,ugm-3,37.76231,R,ugm-3,47.94829,R,ugm-3,,,
15-01-2016,01:00,3.52695,R,ugm-3,28.66455,R,ugm-3,34.07246,R,ugm-3,,,
15-01-2016,02:00,3.09580,R,ugm-3,26.51203,R,ugm-3,31.25886,R,ugm-3,,,
15-01-2016,03:00,2.46467,R,ugm-3,23.53762,R,ugm-3,27.31672,R,ugm-3,,,
15-01-2016,04:00,2.70539,R,ugm-3,26.92513,R,ugm-3,31.07334,R,ugm-3,,,
15-01-2016,05:00,3.03593,R,ugm-3,33.32866,R,ugm-3,37.98368,R,ugm-3,,,
15-01-2016,06:00,4.02816,R,ugm-3,39.27414,R,ugm-3,45.45056,R,ugm-3,,,
15-01-2016,07:00,20.32070,R,ugm-3,60.48520,R,ugm-3,91.64318,R,ugm-3,,,
15-01-2016,08:00,49.17792,R,ugm-3,78.57028,R,ugm-3,153.97538,R,ugm-3,,,